Location: Girdwood
(60.9430°N, 149.1660°W)
Time: 12:39:57
(UTC-08:00)

Amateur Radio Satellites - All Passes

Search period start: 25 October 2014 12:09
Search period end: 26 October 2014 12:09
Location: Girdwood, 60.9430°N, 149.1660°W

Satellite Date Start Highest point End Downlink Frequencies (MHz)
Time Altitude Azimuth
TMSAT-1 25 Oct 12:13:36 12:15:16 11° 23° (NNE) 12:16:56 436.925 FM
AO-27 25 Oct 12:22:06 12:25:28 18° 37° (NE) 12:28:50 436.795 MHz FM
JAS-1B 25 Oct 12:31:03 12:35:51 29° 45° (NE) 12:40:48 435.800 - 435.900 CW/SSB
AO-7 25 Oct 12:32:39 12:38:57 25° 8° (N) 12:45:16 29.400 - 29.500 MHz
FUNcube-1 25 Oct 12:36:33 12:40:54 70° 104° (ESE) 12:45:07 145.950 - 145.970 MHz USB
AO-Echo 25 Oct 12:36:52 12:40:34 21° 42° (NE) 12:44:21 ?
Oscar 11 25 Oct 12:36:52 12:41:11 67° 292° (WNW) 12:45:28 145.825 FM, Beacon 2401.500 USB
HO-68 25 Oct 12:38:46 12:45:51 62° 303° (WNW) 12:52:55 435.675 MHz FM
KITSAT 1 25 Oct 12:46:12 12:52:24 25° 108° (ESE) 12:58:37 435.175 FM
Oscar 16 25 Oct 12:46:34 12:51:07 33° 52° (NE) 12:55:41 437.025 USB, Beacon 2401.1428
Saudisat 1A 25 Oct 13:05:48 13:10:09 53° 359° (N) 13:14:31 436.775 MHz
Uribyol 2 25 Oct 13:07:51 13:12:13 28° 48° (NE) 13:16:35 436.500 FM
ITAMSAT 1 25 Oct 13:14:00 13:18:25 29° 49° (NE) 13:22:51 435.822 SSB
JAS-2 25 Oct 13:22:32 13:26:25 16° 360° (N) 13:30:28 435.800 - 435.900 CW/SSB, 435.910 FM
ZACube-1 25 Oct 13:28:25 13:32:39 50° 296° (WNW) 13:36:45 437.345 MHz
Sapphire 25 Oct 13:28:28 13:33:44 51° 232° (SW) 13:38:58 437.095 MHz 1200 baud AX-25 AFSK
UKube-1 25 Oct 13:32:21 13:36:11 30° 305° (NW) 13:40:01 145.840 MHz, 145.915 MHz
Gurwin Techsat 1B 25 Oct 13:38:31 13:42:54 27° 48° (NE) 13:47:18 435.225 FM
Oscar 19 25 Oct 13:39:09 13:44:14 61° 64° (ENE) 13:49:18 437.125 CW, 437.150 USB
TMSAT-1 25 Oct 13:49:20 13:53:39 26° 47° (NE) 13:57:58 436.925 FM
PCSat 25 Oct 13:51:05 13:56:04 37° 237° (WSW) 14:01:01 145.825 MHz
SO-50 25 Oct 13:54:01 13:56:59 17° 117° (ESE) 14:00:00 436.795 FM
AO-27 25 Oct 13:58:59 14:03:59 48° 59° (ENE) 14:09:02 436.795 MHz FM
FUNcube-1 25 Oct 14:13:20 14:17:00 27° 306° (NW) 14:20:34 145.950 - 145.970 MHz USB
AO-Echo 25 Oct 14:13:35 14:18:33 64° 65° (ENE) 14:23:41 ?
Oscar 11 25 Oct 14:13:49 14:16:43 18° 314° (NW) 14:19:37 145.825 FM, Beacon 2401.500 USB
JAS-1B 25 Oct 14:20:20 14:26:04 88° 250° (WSW) 14:31:55 435.800 - 435.900 CW/SSB
AO-7 25 Oct 14:22:29 14:29:50 37° 35° (NE) 14:37:13 29.400 - 29.500 MHz
Uosat F 25 Oct 14:23:48 14:26:37 15° 34° (NE) 14:29:26 435.120 FM
Oscar 16 25 Oct 14:25:03 14:30:13 72° 254° (WSW) 14:35:23 437.025 USB, Beacon 2401.1428
HO-68 25 Oct 14:26:41 14:32:31 28° 327° (NNW) 14:38:22 435.675 MHz FM
KITSAT 1 25 Oct 14:38:33 14:46:31 65° 132° (SE) 14:54:30 435.175 FM
Saudisat 1A 25 Oct 14:45:43 14:50:09 73° 23° (NNE) 14:54:36 436.775 MHz
Uribyol 2 25 Oct 14:45:58 14:51:13 89° 71° (ENE) 14:56:30 436.500 FM
ITAMSAT 1 25 Oct 14:52:14 14:57:29 87° 251° (WSW) 15:02:46 435.822 SSB
JAS-2 25 Oct 15:04:19 15:09:05 21° 25° (NNE) 15:14:09 435.800 - 435.900 CW/SSB, 435.910 FM
ZACube-1 25 Oct 15:05:49 15:08:12 15° 318° (NW) 15:10:33 437.345 MHz
UKube-1 25 Oct 15:10:19 15:11:14 11° 327° (NNW) 15:12:08 145.840 MHz, 145.915 MHz
Sapphire 25 Oct 15:13:08 15:16:04 15° 254° (WSW) 15:18:59 437.095 MHz 1200 baud AX-25 AFSK
UOSAT-12 25 Oct 15:14:26 15:16:25 13° 113° (ESE) 15:18:26 437.025 FM, 437.400 FM
Gurwin Techsat 1B 25 Oct 15:17:01 15:22:22 86° 70° (ENE) 15:27:44 435.225 FM
Oscar 19 25 Oct 15:19:14 15:23:55 34° 266° (W) 15:28:37 437.125 CW, 437.150 USB
TMSAT-1 25 Oct 15:27:41 15:33:01 82° 69° (ENE) 15:38:22 436.925 FM
SO-50 25 Oct 15:32:12 15:36:43 57° 139° (SE) 15:41:22 436.795 FM
AO-27 25 Oct 15:38:35 15:43:37 46° 261° (W) 15:48:41 436.795 MHz FM
AO-Echo 25 Oct 15:53:12 15:57:42 33° 267° (W) 16:02:22 ?
Uosat F 25 Oct 15:59:37 16:04:19 41° 57° (ENE) 16:09:02 435.120 FM
Oscar 16 25 Oct 16:07:00 16:10:30 18° 276° (W) 16:14:01 437.025 USB, Beacon 2401.1428
JAS-1B 25 Oct 16:13:24 16:17:48 22° 274° (W) 16:22:15 435.800 - 435.900 CW/SSB
AO-7 25 Oct 16:13:34 16:21:50 79° 60° (ENE) 16:30:10 29.400 - 29.500 MHz
HO-68 25 Oct 16:13:40 16:18:15 19° 353° (N) 16:22:50 435.675 MHz FM
ISS 25 Oct 16:15:55 16:18:04 16° 171° (S) 16:20:12 145.800 FM
Saudisat 1A 25 Oct 16:25:25 16:29:38 44° 225° (SW) 16:33:50 436.775 MHz
Uribyol 2 25 Oct 16:27:14 16:31:25 24° 272° (W) 16:35:36 436.500 FM
ITAMSAT 1 25 Oct 16:33:40 16:37:44 23° 273° (W) 16:41:50 435.822 SSB
KITSAT 1 25 Oct 16:33:58 16:42:04 71° 339° (NNW) 16:50:11 435.175 FM
Hamsat 25 Oct 16:37:03 16:39:45 17° 47° (NE) 16:42:26 145.90 MHz
JAS-2 25 Oct 16:46:26 16:52:29 42° 50° (NE) 16:59:13 435.800 - 435.900 CW/SSB, 435.910 FM
UOSAT-12 25 Oct 16:51:05 16:55:32 44° 134° (SE) 17:00:03 437.025 FM, 437.400 FM
Gurwin Techsat 1B 25 Oct 16:58:41 17:03:01 25° 272° (W) 17:07:23 435.225 FM
TMSAT-1 25 Oct 17:09:09 17:13:34 26° 271° (W) 17:18:02 436.925 FM
SO-50 25 Oct 17:12:42 17:17:20 66° 343° (NNW) 17:22:07 436.795 FM
AO-27 25 Oct 17:22:49 17:24:31 11° 283° (WNW) 17:26:14 436.795 MHz FM
Uosat F 25 Oct 17:38:07 17:43:04 54° 258° (WSW) 17:48:03 435.120 FM
ISS 25 Oct 17:51:48 17:53:54 16° 191° (S) 17:56:01 145.800 FM
HO-68 25 Oct 17:58:42 18:03:44 21° 19° (NNE) 18:08:46 435.675 MHz FM
Saudisat 1A 25 Oct 18:06:31 18:08:14 12° 246° (WSW) 18:09:57 436.775 MHz
AO-7 25 Oct 18:07:43 18:15:24 41° 264° (W) 18:23:09 29.400 - 29.500 MHz
Hamsat 25 Oct 18:10:53 18:15:03 65° 68° (ENE) 18:19:13 145.90 MHz
KITSAT 1 25 Oct 18:30:22 18:38:24 62° 6° (N) 18:46:27 435.175 FM
JAS-2 25 Oct 18:30:48 18:37:11 74° 255° (WSW) 18:44:28 435.800 - 435.900 CW/SSB, 435.910 FM
UOSAT-12 25 Oct 18:30:50 18:35:35 76° 337° (NNW) 18:40:22 437.025 FM, 437.400 FM
SO-67 25 Oct 18:43:56 18:46:49 25° 59° (ENE) 18:49:43 435.3500 MHz FM
SO-50 25 Oct 18:53:45 18:58:24 57° 6° (N) 19:03:10 436.795 FM
OPAL 25 Oct 19:12:52 19:17:38 42° 101° (ESE) 19:22:20 ?
Uosat F 25 Oct 19:20:42 19:23:03 13° 280° (W) 19:25:24 435.120 FM
STRAND 1 25 Oct 19:20:48 19:23:37 15° 81° (E) 19:26:26 ?
HO-68 25 Oct 19:43:20 19:49:49 39° 44° (NE) 19:56:20 435.675 MHz FM
Hamsat 25 Oct 19:47:57 19:51:24 25° 269° (W) 19:54:53 145.90 MHz
UKube-1 25 Oct 19:52:07 19:54:08 13° 38° (NE) 19:56:10 145.840 MHz, 145.915 MHz
AO-7 25 Oct 20:07:48 20:10:56 12° 290° (WNW) 20:14:04 29.400 - 29.500 MHz
UOSAT-12 25 Oct 20:11:30 20:16:11 55° 0° (N) 20:20:52 437.025 FM, 437.400 FM
SO-67 25 Oct 20:16:16 20:19:38 50° 259° (W) 20:23:02 435.3500 MHz FM
JAS-2 25 Oct 20:18:35 20:23:38 23° 281° (W) 20:29:09 435.800 - 435.900 CW/SSB, 435.910 FM
KITSAT 1 25 Oct 20:26:21 20:34:30 88° 34° (NE) 20:42:37 435.175 FM
Oscar 11 25 Oct 20:31:22 20:34:17 18° 47° (NE) 20:37:12 145.825 FM, Beacon 2401.500 USB
FUNcube-1 25 Oct 20:33:22 20:35:23 13° 39° (NE) 20:37:22 145.950 - 145.970 MHz USB
SO-50 25 Oct 20:34:31 20:39:19 89° 210° (SSW) 20:44:11 436.795 FM
AO-40 25 Oct 20:51:16 01:36:19 23° 183° (S) 06:12:13 Beacon 2401.320
OPAL 25 Oct 20:51:50 20:56:41 50° 303° (WNW) 21:01:28 ?
STRAND 1 25 Oct 20:58:50 21:03:58 58° 103° (ESE) 21:09:03 ?
Oscar 10/S400 25 Oct 21:00:18 21:26:58 29° 188° (S) 00:14:32 145.825 - 145.975 CW/USB, Beacon 145.810 USB
ZACube-1 25 Oct 21:23:04 21:26:36 23° 51° (NE) 21:30:06 437.345 MHz
UKube-1 25 Oct 21:25:16 21:29:22 41° 59° (ENE) 21:33:29 145.840 MHz, 145.915 MHz
HO-68 25 Oct 21:29:52 21:37:04 86° 248° (WSW) 21:44:20 435.675 MHz FM
RS-15 25 Oct 21:30:38 21:35:59 15° 91° (E) 21:41:20 29.354 - 29.394 USB, Beacon 29.352 USB
UOSAT-12 25 Oct 21:51:59 21:56:46 77° 24° (NNE) 22:01:31 437.025 FM, 437.400 FM
Oscar 11 25 Oct 22:05:31 22:09:49 67° 68° (ENE) 22:14:08 145.825 FM, Beacon 2401.500 USB
FUNcube-1 25 Oct 22:06:34 22:10:48 40° 61° (ENE) 22:14:58 145.950 - 145.970 MHz USB
SO-50 25 Oct 22:15:17 22:19:33 32° 232° (SW) 22:23:52 436.795 FM
KITSAT 1 25 Oct 22:21:56 22:29:25 44° 239° (WSW) 22:36:53 435.175 FM
OPAL 25 Oct 22:31:18 22:34:41 18° 325° (NW) 22:38:02 ?
STRAND 1 25 Oct 22:38:17 22:43:04 39° 304° (NW) 22:47:49 ?
ZACube-1 25 Oct 22:58:00 23:02:34 89° 72° (ENE) 23:07:03 437.345 MHz
UKube-1 25 Oct 23:01:25 23:05:36 43° 261° (W) 23:09:48 145.840 MHz, 145.915 MHz
HO-68 25 Oct 23:19:43 23:25:48 29° 271° (W) 23:31:56 435.675 MHz FM
UOSAT-12 25 Oct 23:32:18 23:36:47 43° 226° (SW) 23:41:14 437.025 FM, 437.400 FM
RS-15 25 Oct 23:35:05 23:45:08 45° 119° (ESE) 23:55:16 29.354 - 29.394 USB, Beacon 29.352 USB
Oscar 11 25 Oct 23:42:50 23:46:26 25° 269° (W) 23:50:03 145.825 FM, Beacon 2401.500 USB
FUNcube-1 25 Oct 23:42:51 23:47:12 45° 261° (W) 23:51:31 145.950 - 145.970 MHz USB
OPAL 26 Oct 00:11:28 00:11:55 10° 349° (N) 00:12:21 ?
STRAND 1 26 Oct 00:18:17 00:21:06 15° 327° (NNW) 00:23:55 ?
KITSAT 1 26 Oct 00:19:01 00:22:46 14° 263° (W) 00:26:31 435.175 FM
ZACube-1 26 Oct 00:36:13 00:39:34 20° 273° (W) 00:42:54 437.345 MHz
MaSat-1 26 Oct 00:59:35 01:02:43 24° 119° (ESE) 01:05:35 437.345 MHz
UOSAT-12 26 Oct 01:14:04 01:15:53 12° 248° (WSW) 01:17:41 437.025 FM, 437.400 FM
Oscar 19 26 Oct 01:42:59 01:43:40 10° 75° (ENE) 01:44:21 437.125 CW, 437.150 USB
RS-15 26 Oct 01:45:38 01:56:36 88° 148° (SSE) 02:07:45 29.354 - 29.394 USB, Beacon 29.352 USB
OPAL 26 Oct 01:47:54 01:48:52 11° 13° (NNE) 01:49:50 ?
JAS-1B 26 Oct 01:52:19 01:56:11 16° 80° (E) 02:00:21 435.800 - 435.900 CW/SSB
AO-Echo 26 Oct 02:12:08 02:13:52 11° 76° (ENE) 02:15:36 ?
Oscar 16 26 Oct 02:26:45 02:30:36 21° 86° (E) 02:34:26 437.025 USB, Beacon 2401.1428
MaSat-1 26 Oct 02:34:23 02:38:07 70° 318° (NW) 02:41:24 437.345 MHz
Uribyol 2 26 Oct 02:49:11 02:52:26 16° 82° (E) 02:55:40 436.500 FM
ITAMSAT 1 26 Oct 02:55:28 02:58:54 17° 83° (E) 03:02:18 435.822 SSB
Oscar 19 26 Oct 03:19:33 03:24:27 43° 98° (E) 03:29:19 437.125 CW, 437.150 USB
OPAL 26 Oct 03:22:32 03:26:09 20° 37° (NE) 03:29:44 ?
Gurwin Techsat 1B 26 Oct 03:23:30 03:27:01 18° 83° (E) 03:30:32 435.225 FM
TMSAT-1 26 Oct 03:33:53 03:37:14 17° 82° (E) 03:40:35 436.925 FM
AO-27 26 Oct 03:40:54 03:45:38 33° 94° (E) 03:50:19 436.795 MHz FM
JAS-1B 26 Oct 03:42:03 03:48:14 56° 102° (ESE) 03:55:30 435.800 - 435.900 CW/SSB
AO-Echo 26 Oct 03:48:55 03:54:01 45° 98° (E) 03:59:07 ?
RS-15 26 Oct 03:58:41 04:09:40 73° 359° (N) 04:20:56 29.354 - 29.394 USB, Beacon 29.352 USB
AO-7 26 Oct 04:04:51 04:08:44 14° 72° (ENE) 04:12:36 29.400 - 29.500 MHz
Oscar 16 26 Oct 04:05:35 04:10:46 83° 108° (ESE) 04:15:55 437.025 USB, Beacon 2401.1428
MaSat-1 26 Oct 04:11:13 04:14:08 24° 339° (NNW) 04:16:47 437.345 MHz
Sapphire 26 Oct 04:21:54 04:25:20 17° 109° (ESE) 04:28:47 437.095 MHz 1200 baud AX-25 AFSK
Uribyol 2 26 Oct 04:27:45 04:32:58 65° 104° (ESE) 04:38:09 436.500 FM
ITAMSAT 1 26 Oct 04:34:09 04:39:25 68° 105° (ESE) 04:44:37 435.822 SSB
PCSat 26 Oct 04:43:07 04:47:23 24° 114° (ESE) 04:51:40 145.825 MHz
Oscar 19 26 Oct 04:59:00 05:03:58 50° 299° (WNW) 05:08:53 437.125 CW, 437.150 USB
OPAL 26 Oct 04:59:15 05:04:15 56° 59° (ENE) 05:09:11 ?
Gurwin Techsat 1B 26 Oct 05:02:41 05:08:02 68° 105° (ESE) 05:13:20 435.225 FM
STRAND 1 26 Oct 05:09:22 05:12:52 19° 39° (NE) 05:16:23 ?
TMSAT-1 26 Oct 05:12:56 05:18:15 65° 104° (ESE) 05:23:32 436.925 FM
AO-27 26 Oct 05:20:20 05:25:34 66° 295° (WNW) 05:30:45 436.795 MHz FM
AO-Echo 26 Oct 05:27:48 05:32:54 50° 299° (WNW) 05:38:02 ?
JAS-2 26 Oct 05:28:55 05:33:52 18° 74° (ENE) 05:38:54 435.800 - 435.900 CW/SSB, 435.910 FM
JAS-1B 26 Oct 05:33:06 05:39:00 49° 303° (WNW) 05:45:51 435.800 - 435.900 CW/SSB
Uosat F 26 Oct 05:35:31 05:39:40 25° 90° (E) 05:43:46 435.120 FM
Oscar 16 26 Oct 05:45:22 05:49:44 29° 310° (NW) 05:54:06 437.025 USB, Beacon 2401.1428
MaSat-1 26 Oct 05:48:18 05:50:37 18° 2° (N) 05:52:45 437.345 MHz
AO-7 26 Oct 05:56:12 06:04:06 44° 97° (E) 06:11:57 29.400 - 29.500 MHz
Sapphire 26 Oct 06:02:29 06:07:47 57° 131° (SE) 06:13:08 437.095 MHz 1200 baud AX-25 AFSK
Uribyol 2 26 Oct 06:07:31 06:12:16 36° 306° (NW) 06:17:00 436.500 FM
RS-15 26 Oct 06:11:46 06:22:49 90° 30° (NNE) 06:34:15 29.354 - 29.394 USB, Beacon 29.352 USB
ITAMSAT 1 26 Oct 06:13:58 06:18:42 35° 307° (NW) 06:23:23 435.822 SSB
PCSat 26 Oct 06:24:43 06:30:08 75° 137° (SE) 06:35:35 145.825 MHz
OPAL 26 Oct 06:38:36 06:43:22 39° 260° (W) 06:48:07 ?
Oscar 19 26 Oct 06:39:04 06:42:22 18° 322° (NW) 06:45:39 437.125 CW, 437.150 USB
Gurwin Techsat 1B 26 Oct 06:42:59 06:47:47 35° 307° (NW) 06:52:34 435.225 FM
STRAND 1 26 Oct 06:46:10 06:51:11 54° 62° (ENE) 06:56:13 ?
TMSAT-1 26 Oct 06:53:09 06:58:00 37° 306° (NW) 07:02:49 436.925 FM
AO-27 26 Oct 07:00:25 07:04:21 22° 318° (NW) 07:08:16 436.795 MHz FM
AO-Echo 26 Oct 07:07:15 07:10:42 18° 321° (NW) 07:14:11 ?
JAS-2 26 Oct 07:13:12 07:20:40 53° 97° (E) 07:28:19 435.800 - 435.900 CW/SSB, 435.910 FM
Uosat F 26 Oct 07:13:59 07:19:05 84° 291° (WNW) 07:24:09 435.120 FM
Hamsat 26 Oct 07:22:14 07:26:04 33° 95° (E) 07:29:53 145.90 MHz
MaSat-1 26 Oct 07:24:17 07:27:02 28° 26° (NNE) 07:29:31 437.345 MHz
JAS-1B 26 Oct 07:24:20 07:28:35 20° 327° (NNW) 07:33:13 435.800 - 435.900 CW/SSB
Oscar 16 26 Oct 07:25:50 07:27:42 12° 333° (NNW) 07:29:35 437.025 USB, Beacon 2401.1428
Sapphire 26 Oct 07:45:55 07:51:19 61° 335° (NNW) 07:56:44 437.095 MHz 1200 baud AX-25 AFSK
Uribyol 2 26 Oct 07:47:49 07:50:31 14° 329° (NNW) 07:53:14 436.500 FM
AO-7 26 Oct 07:49:14 07:57:32 75° 302° (WNW) 08:05:50 29.400 - 29.500 MHz
ITAMSAT 1 26 Oct 07:54:18 07:56:56 14° 330° (NNW) 07:59:34 435.822 SSB
PCSat 26 Oct 08:08:32 08:13:53 53° 341° (NNW) 08:19:14 145.825 MHz
Saudisat 1A 26 Oct 08:21:16 08:23:58 16° 118° (ESE) 08:26:40 436.775 MHz
Gurwin Techsat 1B 26 Oct 08:23:46 08:26:29 14° 330° (NNW) 08:29:11 435.225 FM
RS-15 26 Oct 08:24:09 08:34:30 49° 239° (WSW) 08:45:14 29.354 - 29.394 USB, Beacon 29.352 USB
STRAND 1 26 Oct 08:25:46 08:30:36 40° 263° (W) 08:35:28 ?
TMSAT-1 26 Oct 08:33:53 08:36:41 15° 329° (NNW) 08:39:28 436.925 FM
AO-27 26 Oct 08:41:30 08:42:13 10° 341° (NNW) 08:42:55 436.795 MHz FM
HO-68 26 Oct 08:48:15 08:50:49 12° 71° (ENE) 08:53:23 435.675 MHz FM
Uosat F 26 Oct 08:53:15 08:57:21 25° 313° (NW) 09:01:26 435.120 FM
Hamsat 26 Oct 08:58:09 09:02:12 48° 296° (WNW) 09:06:15 145.90 MHz
JAS-2 26 Oct 08:58:27 09:05:53 62° 299° (WNW) 09:13:37 435.800 - 435.900 CW/SSB, 435.910 FM
MaSat-1 26 Oct 08:59:56 09:02:48 55° 231° (SW) 09:05:23 437.345 MHz
SO-67 26 Oct 09:02:18 09:05:41 46° 100° (E) 09:09:02 435.3500 MHz FM
JAS-1B 26 Oct 09:14:55 09:17:10 12° 354° (N) 09:19:29 435.800 - 435.900 CW/SSB
Sapphire 26 Oct 09:30:18 09:35:32 44° 359° (N) 09:40:46 437.095 MHz 1200 baud AX-25 AFSK
AO-7 26 Oct 09:42:09 09:49:27 36° 327° (NNW) 09:56:45 29.400 - 29.500 MHz
PCSat 26 Oct 09:52:55 09:58:10 45° 6° (N) 10:03:24 145.825 MHz
Saudisat 1A 26 Oct 09:58:27 10:02:45 55° 139° (SE) 10:07:06 436.775 MHz
Uosat F 26 Oct 10:33:24 10:34:39 11° 336° (NNW) 10:35:55 435.120 FM
HO-68 26 Oct 10:33:59 10:40:46 41° 96° (E) 10:47:29 435.675 MHz FM
Hamsat 26 Oct 10:35:14 10:37:20 14° 317° (NW) 10:39:25 145.90 MHz
SO-67 26 Oct 10:35:34 10:38:32 27° 300° (WNW) 10:41:29 435.3500 MHz FM
RS-15 26 Oct 10:37:33 10:43:59 18° 266° (W) 10:50:34 29.354 - 29.394 USB, Beacon 29.352 USB
UKube-1 26 Oct 10:39:41 10:42:43 18° 87° (E) 10:45:45 145.840 MHz, 145.915 MHz
Oscar 16 26 Oct 10:41:24 10:42:15 10° 22° (NNE) 10:43:06 437.025 USB, Beacon 2401.1428
JAS-2 26 Oct 10:43:46 10:49:49 28° 322° (NW) 10:56:08 435.800 - 435.900 CW/SSB, 435.910 FM
JAS-1B 26 Oct 11:02:20 11:05:31 15° 22° (NNE) 11:08:50 435.800 - 435.900 CW/SSB
ITAMSAT 1 26 Oct 11:11:17 11:11:48 10° 19° (NNE) 11:12:20 435.822 SSB
Sapphire 26 Oct 11:14:21 11:19:46 60° 24° (NNE) 11:25:10 437.095 MHz 1200 baud AX-25 AFSK
Oscar 11 26 Oct 11:19:08 11:23:05 33° 95° (E) 11:27:01 145.825 FM, Beacon 2401.500 USB
FUNcube-1 26 Oct 11:21:59 11:25:12 20° 87° (E) 11:28:22 145.950 - 145.970 MHz USB
Oscar 19 26 Oct 11:31:39 11:34:32 15° 34° (NE) 11:37:25 437.125 CW, 437.150 USB
AO-7 26 Oct 11:34:01 11:40:17 25° 354° (N) 11:46:34 29.400 - 29.500 MHz
PCSat 26 Oct 11:36:48 11:42:16 71° 31° (NNE) 11:47:43 145.825 MHz
Saudisat 1A 26 Oct 11:37:58 11:42:22 65° 342° (NNW) 11:46:48 436.775 MHz
Gurwin Techsat 1B 26 Oct 11:41:32 11:42:14 10° 19° (NNE) 11:42:55 435.225 FM
AO-27 26 Oct 11:54:32 11:57:07 14° 30° (NNE) 11:59:43 436.795 MHz FM
AO-Echo 26 Oct 11:58:18 12:01:02 15° 33° (NNE) 12:03:49 ?
